When you browse on this site, cookies collect data to enhance your experience and personalize the content and advertising you see.
Visit our Privacy Policy to learn more. By continuing to use the site, you agree to this use of cookies and data.
  • In Slovakia
  • List of Countries
  • For 7 days
  • Water Temperature
  • Satellite Maps
  • Weather Map
  • Weather Widgets
  • user-avatar
    Login

    Hourly Weather Kalgoorlie

    Today, 19 December, Wednesday

    Time Temperature Precipitation Wind Pressure Humidity
    00:00 +17°C° 0 mm 7 mps 730 mmHg 63%
    01:00 +16°C° 0 mm 7 mps 730 mmHg 66%
    02:00 +15°C° 0 mm 6 mps 730 mmHg 69%
    03:00 +15°C° 0 mm 6 mps 731 mmHg 71%
    04:00 +15°C° 0 mm 5 mps 731 mmHg 73%
    05:00 +14°C° 0 mm 5 mps 731 mmHg 75%
    06:00 +15°C° 0 mm 5 mps 732 mmHg 70%
    07:00 +17°C° 0 mm 5 mps 732 mmHg 64%
    08:00 +19°C° 0 mm 4 mps 732 mmHg 57%
    09:00 +21°C° 0 mm 4 mps 732 mmHg 50%
    10:00 +23°C° 0 mm 4 mps 732 mmHg 43%
    11:00 +25°C° 0 mm 4 mps 732 mmHg 37%
    12:00 +27°C° 0 mm 4 mps 731 mmHg 32%
    13:00 +28°C° 0 mm 4 mps 731 mmHg 28%
    14:00 +29°C° 0 mm 4 mps 730 mmHg 26%
    15:00 +29°C° 0 mm 4 mps 730 mmHg 24%
    16:00 +30°C° 0 mm 4 mps 730 mmHg 23%
    17:00 +30°C° 0 mm 4 mps 730 mmHg 21%
    18:00 +29°C° 0 mm 4 mps 731 mmHg 22%
    19:00 +29°C° 0 mm 4 mps 731 mmHg 23%
    20:00 +28°C° 0 mm 4 mps 731 mmHg 25%
    21:00 +27°C° 0 mm 5 mps 732 mmHg 30%
    22:00 +26°C° 0 mm 6 mps 732 mmHg 36%
    23:00 +23°C° 0 mm 7 mps 732 mmHg 41%

    Tomorrow, 20 December, Thursday

    Time Temperature Precipitation Wind Pressure Humidity
    00:00 +22°C° 0 mm 7 mps 732 mmHg 47%
    01:00 +21°C° 0 mm 7 mps 732 mmHg 52%
    02:00 +20°C° 0 mm 8 mps 732 mmHg 58%
    03:00 +18°C° 0 mm 7 mps 732 mmHg 62%
    04:00 +18°C° 0 mm 7 mps 732 mmHg 65%
    05:00 +17°C° 0 mm 6 mps 732 mmHg 69%
    06:00 +19°C° 0 mm 6 mps 732 mmHg 65%
    07:00 +20°C° 0 mm 6 mps 733 mmHg 60%
    08:00 +21°C° 0 mm 6 mps 733 mmHg 56%
    09:00 +23°C° 0 mm 5 mps 733 mmHg 49%
    10:00 +26°C° 0 mm 5 mps 732 mmHg 42%
    11:00 +28°C° 0 mm 5 mps 732 mmHg 36%
    12:00 +29°C° 0 mm 5 mps 732 mmHg 32%
    13:00 +30°C° 0 mm 4 mps 732 mmHg 28%
    14:00 +32°C° 0 mm 4 mps 731 mmHg 24%
    15:00 +32°C° 0 mm 4 mps 731 mmHg 22%
    16:00 +32°C° 0 mm 4 mps 731 mmHg 21%
    17:00 +33°C° 0 mm 4 mps 731 mmHg 20%
    18:00 +32°C° 0 mm 4 mps 731 mmHg 20%
    19:00 +30°C° 0 mm 4 mps 732 mmHg 21%
    20:00 +29°C° 0 mm 5 mps 732 mmHg 22%
    21:00 +27°C° 0 mm 6 mps 732 mmHg 27%
    22:00 +26°C° 0 mm 8 mps 732 mmHg 31%
    23:00 +23°C° 0 mm 10 mps 732 mmHg 36%

    Day after tomorrow, 21 December, Friday

    Time Temperature Precipitation Wind Pressure Humidity
    00:00 +22°C° 0 mm 9 mps 732 mmHg 41%
    01:00 +21°C° 0 mm 9 mps 732 mmHg 47%
    02:00 +20°C° 0 mm 8 mps 732 mmHg 52%
    03:00 +18°C° 0 mm 7 mps 732 mmHg 55%
    04:00 +17°C° 0 mm 7 mps 732 mmHg 57%
    05:00 +17°C° 0 mm 6 mps 732 mmHg 60%
    06:00 +19°C° 0 mm 6 mps 733 mmHg 55%
    07:00 +21°C° 0 mm 6 mps 733 mmHg 50%
    08:00 +22°C° 0 mm 6 mps 733 mmHg 45%
    09:00 +24°C° 0 mm 6 mps 733 mmHg 40%
    10:00 +27°C° 0 mm 6 mps 733 mmHg 34%
    11:00 +29°C° 0 mm 5 mps 733 mmHg 28%
    12:00 +30°C° 0 mm 5 mps 732 mmHg 26%
    13:00 +32°C° 0 mm 5 mps 732 mmHg 23%
    14:00 +33°C° 0 mm 4 mps 732 mmHg 21%
    15:00 +33°C° 0 mm 4 mps 731 mmHg 20%
    16:00 +33°C° 0 mm 5 mps 731 mmHg 19%
    17:00 +33°C° 0 mm 5 mps 731 mmHg 18%
    18:00 +32°C° 0 mm 5 mps 731 mmHg 19%
    19:00 +30°C° 0 mm 5 mps 732 mmHg 20%
    20:00 +29°C° 0 mm 6 mps 732 mmHg 20%
    21:00 +28°C° 0 mm 6 mps 732 mmHg 22%
    22:00 +27°C° 0 mm 7 mps 732 mmHg 23%
    23:00 +27°C° 0 mm 8 mps 733 mmHg 24%

    22 December, Saturday

    Time Temperature Precipitation Wind Pressure Humidity
    00:00 +26°C° 0 mm 8 mps 732 mmHg 28%
    01:00 +23°C° 0 mm 8 mps 732 mmHg 32%
    02:00 +22°C° 0 mm 7 mps 732 mmHg 35%
    03:00 +22°C° 0 mm 7 mps 732 mmHg 38%
    04:00 +21°C° 0 mm 6 mps 732 mmHg 41%
    05:00 +21°C° 0 mm 6 mps 732 mmHg 43%
    06:00 +22°C° 0 mm 6 mps 732 mmHg 40%
    07:00 +23°C° 0 mm 6 mps 733 mmHg 37%
    08:00 +26°C° 0 mm 6 mps 733 mmHg 33%
    09:00 +28°C° 0 mm 6 mps 733 mmHg 28%
    10:00 +30°C° 0 mm 5 mps 732 mmHg 23%
    11:00 +33°C° 0 mm 5 mps 732 mmHg 18%
    12:00 +34°C° 0 mm 4 mps 731 mmHg 16%
    13:00 +34°C° 0 mm 4 mps 731 mmHg 14%
    14:00 +35°C° 0 mm 4 mps 730 mmHg 12%
    15:00 +35°C° 0 mm 4 mps 730 mmHg 11%
    16:00 +36°C° 0 mm 3 mps 730 mmHg 11%
    17:00 +36°C° 0 mm 3 mps 730 mmHg 10%
    18:00 +35°C° 0 mm 3 mps 730 mmHg 11%
    19:00 +34°C° 0 mm 4 mps 730 mmHg 12%
    20:00 +33°C° 0 mm 4 mps 730 mmHg 13%
    21:00 +32°C° 0 mm 4 mps 730 mmHg 14%
    22:00 +30°C° 0 mm 5 mps 731 mmHg 16%
    23:00 +30°C° 0 mm 5 mps 731 mmHg 17%

    23 December, Sunday

    Time Temperature Precipitation Wind Pressure Humidity
    00:00 +29°C° 0 mm 5 mps 730 mmHg 17%
    01:00 +29°C° 0 mm 5 mps 730 mmHg 17%
    02:00 +28°C° 0 mm 5 mps 729 mmHg 18%
    03:00 +27°C° 0 mm 5 mps 729 mmHg 18%
    04:00 +27°C° 0 mm 4 mps 729 mmHg 18%
    05:00 +26°C° 0 mm 4 mps 729 mmHg 18%
    06:00 +28°C° 0 mm 4 mps 730 mmHg 17%
    07:00 +30°C° 0 mm 5 mps 730 mmHg 15%
    08:00 +33°C° 0 mm 6 mps 730 mmHg 14%
    09:00 +34°C° 0 mm 5 mps 730 mmHg 13%
    10:00 +35°C° 0 mm 4 mps 730 mmHg 11%
    11:00 +37°C° 0 mm 4 mps 729 mmHg 10%
    12:00 +37°C° 0 mm 3 mps 729 mmHg 9%
    13:00 +38°C° 0 mm 3 mps 728 mmHg 9%
    14:00 +38°C° 0 mm 2 mps 727 mmHg 8%
    15:00 +38°C° 0 mm 2 mps 727 mmHg 8%
    16:00 +38°C° 0 mm 2 mps 727 mmHg 8%
    17:00 +38°C° 0 mm 2 mps 727 mmHg 8%
    18:00 +38°C° 0 mm 2 mps 727 mmHg 9%
    19:00 +37°C° 0 mm 2 mps 727 mmHg 10%
    20:00 +36°C° 0 mm 2 mps 727 mmHg 11%
    21:00 +35°C° 0 mm 3 mps 727 mmHg 14%
    22:00 +34°C° 0 mm 4 mps 727 mmHg 18%
    23:00 +33°C° 0 mm 4 mps 727 mmHg 21%

    24 December, Monday

    Time Temperature Precipitation Wind Pressure Humidity
    00:00 +32°C° 0 mm 4 mps 727 mmHg 25%
    01:00 +30°C° 0 mm 4 mps 727 mmHg 28%
    02:00 +30°C° 0 mm 3 mps 726 mmHg 32%
    03:00 +29°C° 0 mm 3 mps 726 mmHg 34%
    04:00 +28°C° 0 mm 2 mps 727 mmHg 37%
    05:00 +27°C° 0 mm 2 mps 727 mmHg 39%
    06:00 +28°C° 0 mm 3 mps 727 mmHg 37%
    07:00 +29°C° 0 mm 3 mps 727 mmHg 35%
    08:00 +31°C° 0 mm 3 mps 728 mmHg 33%
    09:00 +33°C° 0 mm 3 mps 728 mmHg 29%
    10:00 +35°C° 0 mm 2 mps 727 mmHg 25%
    11:00 +36°C° 0 mm 1 mps 727 mmHg 21%
    12:00 +38°C° 0 mm 2 mps 727 mmHg 18%
    13:00 +39°C° 0 mm 3 mps 726 mmHg 16%
    14:00 +40°C° 0 mm 3 mps 726 mmHg 14%
    15:00 +41°C° 0 mm 4 mps 726 mmHg 14%
    16:00 +41°C° 0 mm 4 mps 726 mmHg 14%
    17:00 +41°C° 0 mm 5 mps 726 mmHg 14%
    18:00 +39°C° 0 mm 6 mps 727 mmHg 17%
    19:00 +38°C° 0 mm 7 mps 727 mmHg 20%
    20:00 +37°C° 0 mm 8 mps 728 mmHg 23%
    21:00 +33°C° 0 mm 8 mps 728 mmHg 28%
    22:00 +31°C° 0 mm 9 mps 728 mmHg 33%
    23:00 +28°C° 0 mm 9 mps 729 mmHg 39%
    Show more